Regional Weather Roundup
Issued by NWS Bismarck, ND

Home | Current Version | Previous Version | Text Only | Print | Product List | Glossary On
Versions: 1 2 3 4 5 6 7 8 9 10 11 12 13 14 15 16 17 18 19 20 21 22 23 24 25 26 27 28 29 30 31 32 33 34 35 36 37 38 39 40 41 42 43 44 45 46 47 48 49 50
000
ASUS43 KBIS 180820
RWRBIS

NWR BROADCAST TEXT
NATIONAL WEATHER SERVICE BISMARCK ND
300 AM CDT THU SEP 18 2014

NOTE: "FAIR" INDICATES FEW OR NO CLOUDS BELOW 12,000 FEET WITH NO
SIGNIFICANT WEATHER AND/OR OBSTRUCTIONS TO VISIBILITY.


CITY           SKY/WX    TMP DP  RH WIND       PRES   REMARKS
WILLISTON      CLEAR     56  47  71 VRB3      29.85F
MINOT          CLEAR     48  46  93 E8        29.94F
MINOT AFB      CLEAR     45  45  99 SE10      29.94F
BISMARCK       CLEAR     48  45  89 NE7       29.97F
DICKINSON      PTCLDY    52  45  77 SE12      29.90F
GARRISON         N/A     52  50  93 SE8       29.94F
HETTINGER ARPT MOCLDY    53  46  77 SE10      29.93F
JAMESTOWN      CLEAR     43  41  93 CALM      30.01S
BEACH            N/A     54  52  94 S16G22    29.86F
CARRINGTON     FAIR      43  43 100 SE9       30.01F
CROSBY         FAIR      46  46 100 CALM      29.87F
HARVEY         FAIR      41  41 100 SE7       29.99F
HAZEN          FAIR      45  43  93 NE3       29.94F
LINTON         FAIR      50  48  93 SE6       29.96F
MANDAN         FAIR      48  45  87 E8        29.96F
OAKES            N/A     45  45 100 NE3       30.00S
RUGBY          FAIR      45  45 100 SE8       29.98F
STANLEY        FAIR      48  48 100 SE10      29.91F
TIOGA          FAIR      45  45 100 E6        29.92F
WATFORD CITY   FAIR      52  46  82 SE8       29.84F
$$

CITY           SKY/WX    TMP DP  RH WIND       PRES   REMARKS
GRAND FORKS    CLEAR     38  37  97 N3        30.03F
GRAND FORKS AF CLEAR     37  37 100 N3        30.03F
DEVILS LAKE    CLEAR     45  37  76 E9        29.99F
FARGO          CLEAR     47  44  90 CALM      30.01R
CANDO          FAIR      39  39 100 E7        30.01F
CAVALIER       FAIR      37  36  93 CALM      30.05F
GRAFTON        FAIR      37  37 100 N5        30.05S
GWINNER        SUNNY     48  48 100 N6        30.01F
LANGDON        FAIR      37  37 100 SE8       30.01F
ROLLA          FAIR      37  37 100 S5        30.01F
WALHALLA       FAIR      36  36 100 CALM      30.06F FOG
$$

CITY           SKY/WX    TMP DP  RH WIND       PRES   REMARKS
ABERDEEN       CLEAR     46  45  96 NE3       29.99S
MOBRIDGE       CLEAR     53  47  79 E9        29.93F
BUFFALO          N/A     58  50  75 SE12      29.84F
RAPID CITY     PTCLDY    55  51  86 CALM      29.94F
GLASGOW        CLEAR     57  47  69 E14       29.74F
SIDNEY         PTCLDY    54  48  82 S5        29.84F
WOLF POINT     PTCLDY    54  45  71 NE7       29.78F
GLENDIVE       PTCLDY    57  50  77 S6        29.83F
MILES CITY     PTCLDY    63  51  65 S10       29.79F
BAKER          PTCLDY    57  50  77 SE15      29.87F
$$

CITY           SKY/WX    TMP DP  RH WIND       PRES   REMARKS
BILLINGS       MOCLDY    62  49  62 SW10      29.84F
GREAT FALLS    MOCLDY    66  42  41 S9        29.76S
REGINA         CLEAR     48  46  93 SE18G25   29.81F
ESTEVAN        PTCLDY    46  45  93 E9        29.89F
$$



USA.gov is the U.S. government's official web portal to all federal, state and local government web resources and services.